Find Starlink 36369

NORAD ID: 67723 Int'l Des: 2026-026 Owner: SPXS Country: US Constellation: starlink operational
LEOCIRCULARRETROGRADE

当前视图

正在加载3D地球...

关于 Starlink 36369

正在加载描述...

即将过境

Passes for default location (London). Set your location on the main map for personalized predictions.

高度历史

Loading altitude history...

两行轨道根数

1 67723U 26026C 26146.15169620 -.00019172 00000-0 -59266-3 0 9993
2 67723 97.2854 199.6056 0000347 204.0299 156.0927 15.33465435 15991
Epoch: May 26, 2026 • Age: 14 hours

当前状态

高度 492.6 km
速度 7.62 km/s
星下点 -74.57°S, 150.81°W
发射日期 Feb 11, 2026
运行时间 0.2 years
类型 internet

技术详情

分类 Payload
质量 575.00 kg
干质量 530.00 kg
总质量 575.00 kg
长度 0.30 m
直径 4.10 m
跨度 29.00 m
形状 Box + pan
制造商 SPXS
平台类型 Starlink V2MO
阶段状态 In Orbit
所有者/国家 SPXS/US

Most Searched